GW0203 Weather Reports


time (UTC)temp
F
wind
direction
speed
knots
gust
knots
rain 1hr
in
rain 24hr
in
rain mn
in
humidity
%
barometer
mb
20260901023628 67 90 0.0 1.7 0.00 0.02 0.02 90 1017.3
20260901022125 68 117 0.0 0.0 0.00 0.02 0.02 89 1017.5
20260901020624 68 107 0.0 1.7 0.00 0.02 0.02 88 1017.9
20260901015119 68 160 0.0 1.7 0.00 0.02 0.02 87 1018.0
20260901013617 68 97 0.0 1.7 0.00 0.02 0.02 87 1017.6
20260901012113 68 106 0.0 1.7 0.00 0.02 0.02 86 1017.6
20260901010609 68 75 0.9 1.7 0.00 0.02 0.02 86 1017.8
20260901005109 68 188 0.0 1.7 0.00 0.02 0.02 87 1017.8
20260901003605 68 159 0.0 2.6 0.00 0.02 0.02 87 1017.9
20260901002104 68 151 0.0 0.9 0.00 0.02 0.02 87 1018.1
20260901000601 68 102 0.0 2.6 0.00 0.02 0.02 87 1017.6
20260831235058 68 180 0.9 1.7 0.00 0.02 0.02 86 1018.0
20260831233554 69 77 0.0 1.7 0.00 0.02 0.02 86 1018.0
20260831232052 69 105 0.0 2.6 0.00 0.02 0.02 85 1017.8
20260831230551 69 95 1.7 4.3 0.00 0.02 0.02 83 1017.9
20260831225047 70 209 0.0 2.6 0.00 0.02 0.02 82 1017.8
20260831223544 70 180 0.0 1.7 0.00 0.02 0.02 80 1017.9
20260831222042 71 206 0.0 2.6 0.00 0.02 0.02 77 1017.9
20260831220539 71 263 0.9 5.2 0.00 0.02 0.02 78 1017.9
20260831215037 71 225 2.6 3.5 0.00 0.02 0.02 77 1017.8
20260831213532 72 148 0.0 3.5 0.00 0.02 0.02 77 1018.1
20260831212030 75 124 0.0 2.6 0.00 0.02 0.02 71 1018.3
20260831210525 75 154 0.9 2.6 0.00 0.02 0.02 70 1018.2
20260831205024 77 41 0.0 2.6 0.00 0.02 0.02 67 1017.9
20260831203522 76 185 0.0 2.6 0.00 0.02 0.02 67 1017.9
20260831202021 80 126 0.0 1.7 0.00 0.02 0.02 59 1017.8
20260831200517 82 135 0.0 2.6 0.00 0.02 0.02 56 1018.0
20260831195013 79 174 0.0 2.6 0.00 0.02 0.02 63 1017.9
20260831193509 81 156 0.0 3.5 0.00 0.02 0.02 59 1018.0
20260831192006 79 114 0.0 4.3 0.00 0.02 0.02 59 1018.1
20260831190506 82 135 1.7 1.7 0.00 0.02 0.02 55 1018.1
20260831185000 84 173 0.0 2.6 0.00 0.02 0.02 49 1018.1
20260831183455 87 195 0.0 2.6 0.00 0.02 0.02 48 1018.7
20260831181951 84 279 0.0 1.7 0.00 0.02 0.02 50 1018.5
20260831180447 86 190 0.0 3.5 0.00 0.02 0.02 49 1018.5
20260831174944 85 23 0.0 2.6 0.00 0.02 0.02 50 1018.7
20260831173443 88 151 0.0 3.5 0.00 0.02 0.02 48 1018.9
20260831171941 84 157 0.0 2.6 0.00 0.02 0.02 51 1018.8
20260831170441 82 174 0.0 2.6 0.00 0.02 0.02 55 1019.2
20260831164936 84 61 0.0 2.6 0.00 0.02 0.02 52 1019.0
20260831163434 83 145 0.0 2.6 0.00 0.02 0.02 56 1019.0
20260831161932 83 166 0.9 3.5 0.00 0.02 0.02 56 1019.1
20260831160430 83 90 1.7 7.0 0.00 0.02 0.02 55 1019.5
20260831154926 83 153 3.5 4.3 0.00 0.02 0.02 55 1019.5
20260831153422 81 220 0.0 5.2 0.00 0.02 0.02 60 1019.8
20260831151921 80 139 0.0 3.5 0.00 0.02 0.02 66 1019.7
20260831150416 78 180 0.0 2.6 0.00 0.02 0.02 68 1019.5
20260831144913 77 105 2.6 4.3 0.00 0.02 0.02 72 1019.7
20260831143410 75 102 1.7 6.1 0.00 0.02 0.02 74 1019.5
20260831141907 74 352 0.0 5.2 0.00 0.02 0.02 75 1019.4
20260831140403 73 145 0.0 1.7 0.00 0.02 0.02 82 1019.3
20260831134903 73 69 0.9 5.2 0.00 0.02 0.02 79 1019.3
20260831133359 71 188 0.0 6.1 0.00 0.02 0.02 84 1019.1
20260831131855 70 90 1.7 4.3 0.00 0.02 0.02 89 1018.9
20260831130353 69 29 0.9 5.2 0.00 0.02 0.02 90 1019.0
20260831124848 68 43 3.5 4.3 0.00 0.02 0.02 91 1019.2
20260831123343 68 96 2.6 4.3 0.00 0.02 0.02 94 1019.1
20260831121840 67 6 0.9 2.6 0.00 0.02 0.02 96 1019.0
20260831120337 67 59 0.0 1.7 0.00 0.02 0.02 97 1018.9
20260831114834 67 20 0.0 2.6 0.00 0.02 0.02 99 1018.8
20260831113329 65 49 0.0 1.7 0.00 0.02 0.02 99 1018.9
20260831111825 64 52 0.0 1.7 0.00 0.02 0.02 99 1018.5
20260831110323 63 59 0.0 2.6 0.00 0.02 0.02 99 1018.6
20260831104818 63 23 0.0 1.7 0.00 0.02 0.02 99 1018.3
20260831103316 63 99 0.0 2.6 0.00 0.02 0.02 99 1018.0
20260831101813 63 66 0.0 2.6 0.00 0.02 0.02 99 1018.1
20260831100312 63 90 1.7 3.5 0.00 0.02 0.02 99 1017.6
20260831094812 63 340 0.0 2.6 0.00 0.02 0.02 99 1017.2
20260831093309 63 13 2.6 5.2 0.00 0.02 0.02 99 1017.3
20260831091808 64 0 0.9 4.3 0.00 0.02 0.02 99 1016.9
20260831090306 64 0 0.9 3.5 0.00 0.02 0.02 99 1017.0
20260831084803 64 354 0.0 1.7 0.00 0.02 0.02 99 1017.0
20260831083302 65 35 0.0 3.5 0.00 0.02 0.02 99 1016.9
20260831081758 65 234 0.9 4.3 0.00 0.02 0.02 99 1016.7
20260831080254 65 131 1.7 3.5 0.00 0.02 0.02 99 1016.7
20260831074752 65 0 0.0 4.3 0.00 0.02 0.02 99 1016.7
20260831073251 65 0 3.5 4.3 0.02 0.02 0.02 99 1016.5
20260831071749 66 343 2.6 4.3 0.00 0.01 0.01 99 1016.4
20260831070249 66 345 0.0 6.1 0.00 0.01 0.01 99 1016.3
20260831064748 66 123 0.0 2.6 0.00 0.01 0.01 99 1016.4
20260831063245 67 330 4.3 4.3 0.00 0.01 0.01 99 1016.2
20260831061744 67 309 1.7 3.5 0.00 0.01 0.01 99 1016.3
20260831060241 68 336 4.3 4.3 0.00 0.01 0.01 99 1016.0
20260831054736 68 305 1.7 3.5 0.00 0.01 0.01 99 1016.0
20260831053235 68 300 0.9 1.7 0.00 0.01 0.01 99 1016.1
20260831051732 68 297 0.9 2.6 0.00 0.01 0.01 99 1016.1
20260831050231 68 331 0.0 1.7 0.00 0.01 0.01 99 1015.7
20260831044727 68 180 0.0 1.7 0.00 0.01 0.01 99 1016.0
20260831043225 68 0 0.0 0.9 0.00 0.01 0.01 99 1015.8
20260831041720 69 350 0.0 1.7 0.00 0.01 0.01 99 1015.8
20260831040220 69 346 0.0 2.6 0.24 0.01 0.01 99 1016.0
20260831034717 70 293 1.7 2.6 0.21 0.41 0.41 99 1016.2
20260831033214 69 340 0.9 7.8 0.45 0.34 0.34 99 1016.0
20260831031710 69 143 0.0 2.6 0.33 0.20 0.20 99 1016.2
20260831030208 70 285 0.9 2.6 0.14 0.13 0.13 99 1016.2
20260831024704 70 139 0.0 2.6 0.19 0.09 0.09 99 1016.3